Location: Bothwell
(42.3833°S, 147.0000°E)
Time: 20:36:47
(UTC+11:00)

AO-85 - Pass Details

Date: 27 September 2022
Orbit: 513 x 757 km, 64.8° (Epoch: 24 November)

Event Time Altitude Azimuth Distance (km) Brightness Sun altitude
Rises 02:32:55 0° 203° (SSW) 3,002 ? -34.7°
Enters shadow 03:43:40 -61° 259° (W) 11,724 ? -23.9°
Exits shadow 04:09:44 -9° 217° (SW) 4,216 ? -19.5°
Drops below altitude 10° 04:13:04 -1° 204° (SSW) 3,136 ? -18.9°
Sets 04:13:10 0° 203° (SSW) 3,107 ? -18.9°
Maximum altitude 04:19:23 14° 146° (SE) 1,977 ? -17.8°
